INTELSAT 33E DEB, 64404

Orbit data source: Space-Track

INTELSAT 33E DEB, 64404 is space debris in GEO originally from a launch on Wed, 24 Aug 2016 UTC launched from the French Guiana (FRGUI). Debris objects in space refer to the collection of defunct objects orbiting the Earth. Examples of debris include non-operational satellites, rocket bodies, and fragments generated from explosions, collisions, or faulty payload assembly.

Loading next visibility...
Identifier
64404, 2016-053AJ
Orbit
GEO
Country
Flag of USUS / ITSO
Related business
Manufacturer
Boeing/ES
Mission
Spacecraft
Bus & Motor
Unknown
Mass
Unknown
Launch date (UTC)
2016-08-24 (10 years ago)
Launch vehicle
Unknown
Launch site
French Guiana (FRGUI)
Object type
Payload
Rocket body
Debris
Shape & HBR
Unknown shape, 1.1 m
Radar Cross Section
RCS unknown

Expand to show TLE details & history
Last TLE update: 1 day ago

TLE from 1 day ago
0 INTELSAT 33E DEB
1 64404U 16053AJ  26165.68078794 -.00000188  00000-0  00000+0 0  9999
2 64404   1.4174  60.9696 0114657  28.6539 330.9494  0.99865456  5885
Epoch: 2026-06-14T16:20Z
TLE epoch observation values (Epoch: 2026-06-14T16:20:20.078Z)
Latitude
0.00001°
Longitude
-88.13635°
Altitude
35,475.353 km
Speed
3.102 km/s
True Right ascension
03h 59m 42s
True Declination
0° 00' 00"
Sunlit
Object was in daylight at epoch
Visualization orbit readout
Latitude
Unknown
Longitude
Unknown
Altitude
Unknown
Speed
Unknown
Apparent Right ascension
Unknown
Apparent Declination
Unknown
Sunlit
N/A
Visualization observer readout
Local Sidereal Time
02:34:15
Azimuth
Unknown
Elevation
Unknown
Doppler factor
Unknown
Orbital elements
Apogee altitude
36,386.728 km
Perigee altitude
35,417.186 km
Semi-major axis
42,280.094 km
Eccentricity
0.01147
Inclination
1.4174°
RAAN
60.9696°
Arg. of periapsis
28.6539°
True anomaly
330.30333°
Mean anomaly
330.9494°
Eccentric anomaly
330.62718°
Mean motion
0.24965 °/min
Orbital period
1,441.99 mins
BSTAR
0
Loading maneuver chart data...
Computing Atmospheric mass density...
Loading historical data...
Loading historical data...
Loading historical data...
Loading historical data...
Loading historical data...
Loading historical data...
Loading historical data...

Documentation

Showing up to 5 results
|